STARLINK-1230, 45189

Orbit data source: Space-Track

STARLINK-1230, 45189 is a payload satellite owned by SpaceX/Seattle (US) in LEO that was launched on Mon, 17 Feb 2020 UTC via an FALCON 9 launch vehicle from the Air Force Eastern Test Range (AFETR). Payload-class satellites include a variety of spacecraft equipped with specific instruments for various scientific and technological missions. These include communications satellites like Starlink; space stations such as the ISS; scientific satellites like the Hubble; Earth observation satellites from companies like Planet Labs, Umbra, and HawkEye 360; GPS; miniature CubeSats for education and research; and military/defense satellites.

Loading next visibility...
Identifier
45189, 2020-012M
Orbit
LEO
Country
Flag of USUS
Related business
Manufacturer
SpaceX/Seattle
Mission
Partially operational Commercial Communications
Bus & Motor
STARLINK, Unknown motor
Mass
260 kg wet, ~248 kg dry
Launch date (UTC)
2020-02-17 (6 years ago)
Launch vehicle
FALCON 9
Launch site
Air Force Eastern Test Range (AFETR)
Object type
Payload
Rocket body
Debris
Shape & HBR
Box + 1 Pan, 10.1 m
Radar Cross Section
13.562 m², Large (>1 m²)

Expand to show TLE details & history
Last TLE update: 3 days ago

TLE from 3 days ago
0 STARLINK-1230
1 45189U 20012M   26170.64157267  .00040853  00000-0  11540-2 0  9999
2 45189  53.1545 284.7330 0002621 299.4335  60.6406 15.35983165347793
Epoch: 2026-06-19T15:23Z
TLE epoch observation values (Epoch: 2026-06-19T15:23:51.878Z)
Latitude
-0.00007°
Longitude
145.89916°
Altitude
458.025 km
Speed
7.64 km/s
True Right ascension
18h 58m 55s
True Declination
0° 00' 00"
Sunlit
Object was in full shadow at epoch
Visualization orbit readout
Latitude
Unknown
Longitude
Unknown
Altitude
Unknown
Speed
Unknown
Apparent Right ascension
Unknown
Apparent Declination
Unknown
Sunlit
N/A
Visualization observer readout
Local Sidereal Time
21:34:21
Azimuth
Unknown
Elevation
Unknown
Doppler factor
Unknown
Orbital elements
Apogee altitude
460.052 km
Perigee altitude
456.468 km
Semi-major axis
6,836.397 km
Eccentricity
0.00026
Inclination
53.1545°
RAAN
284.733°
Arg. of periapsis
299.4335°
True anomaly
60.66678°
Mean anomaly
60.6406°
Eccentric anomaly
60.65369°
Mean motion
3.83974 °/min
Orbital period
93.76 mins
BSTAR
0.001154
Loading maneuver chart data...
Computing Atmospheric mass density...

Documentation

Showing up to 5 results
|